DW2802 Ogijares ES current weather conditions

sailwx.info

Wind from 175

Air temperature 16.1° C
Dewpoint 10.8° C

Last reported at 2016-Sep-28 22:42 UTC.
Time now 2016-Sep-28 23:56 UTC

Location: N 37°07' W 003°36'.
View on Google Maps.

See reports from other nearby stations

  
Tides and Currents Weather Stations Pressure Air Temp Water Temp Dewpoint Dewpoint Depression Visibility Wind Speed Wind Dir Waves Ship Positions
date/time (UTC)wind fromknots sea level pressurealtimeterstation pressurevisibilityair tempwater tempwave heightnotes
2016-Sep-28 22:42 175 16.1
2016-Sep-28 22:27 188 16.1
2016-Sep-28 22:12 175 2 gusting 5 16.1
2016-Sep-28 21:57 132 16.7
2016-Sep-28 21:42 113 17.2
2016-Sep-28 21:27 113 2 gusting 5 17.2
2016-Sep-28 21:12 221 1 gusting 4 17.8
2016-Sep-28 20:57 220 2 gusting 5 17.8
2016-Sep-28 20:42 215 2 gusting 5 17.8
2016-Sep-28 20:27 232 2 gusting 6 18.3
2016-Sep-28 20:12 223 4 gusting 8 18.3
2016-Sep-28 19:57 244 4 gusting 9 18.9
2016-Sep-28 19:42 260 5 gusting 8 18.9
2016-Sep-28 19:26 266 4 gusting 14 19.4
2016-Sep-28 19:13 284 2 gusting 4 20.0
2016-Sep-28 18:57 304 20.0
2016-Sep-28 18:42 175 2 gusting 6 20.6
2016-Sep-28 18:26 123 5 gusting 14 21.7
2016-Sep-28 18:12 038 7 gusting 14 21.7
2016-Sep-28 17:56 046 6 gusting 13 22.2
2016-Sep-28 17:41 067 5 gusting 14 22.8
2016-Sep-28 17:26 064 7 gusting 14 22.8
2016-Sep-28 17:11 065 6 gusting 14 23.3
2016-Sep-28 16:56 048 8 gusting 14 23.3
2016-Sep-28 16:41 074 6 gusting 19 23.9
2016-Sep-28 16:26 350 6 gusting 15 23.9
2016-Sep-28 16:11 055 6 gusting 13 23.9
2016-Sep-28 15:56 084 9 gusting 19 23.9
2016-Sep-28 15:41 075 6 gusting 13 23.9
2016-Sep-28 15:26 024 9 gusting 15 23.9
2016-Sep-28 15:11 077 1 gusting 13 23.9
2016-Sep-28 14:56 331 1 gusting 6 23.9
2016-Sep-28 14:41 144 2 gusting 8 23.9
2016-Sep-28 14:26 242 3 gusting 13 23.9
2016-Sep-28 14:11 192 3 gusting 13 23.9
2016-Sep-28 13:56 212 6 gusting 12 24.4
2016-Sep-28 13:41 076 6 gusting 13 23.3
2016-Sep-28 13:26 030 0 gusting 6 22.8
2016-Sep-28 13:11 150 4 gusting 10 22.8
2016-Sep-28 12:56 109 23.3
2016-Sep-28 12:41 185 6 gusting 11 23.3
2016-Sep-28 12:26 238 6 gusting 10 23.3
2016-Sep-28 12:11 267 2 gusting 10 23.3
2016-Sep-28 11:56 252 6 gusting 10 23.3
2016-Sep-28 11:41 240 3 gusting 8 23.3
2016-Sep-28 11:26 238 2 gusting 8 22.8
2016-Sep-28 11:11 298 4 gusting 9 22.2
2016-Sep-28 10:56 318 3 gusting 7 22.2
2016-Sep-28 10:41 258 3 gusting 6 22.2
2016-Sep-28 10:26 242 1 gusting 6 21.7
2016-Sep-28 10:11 039 22.2
2016-Sep-28 09:56 262 21.1
2016-Sep-28 09:41 140 1 gusting 4 20.6
2016-Sep-28 09:26 136 20.0
2016-Sep-28 09:11 136 19.4
2016-Sep-28 08:55 136 19.4
2016-Sep-28 08:40 136 18.9
2016-Sep-28 08:25 136 18.9
2016-Sep-28 08:10 136 18.3
2016-Sep-28 07:56 136 18.3
2016-Sep-28 07:40 136 18.3
2016-Sep-28 07:25 136 17.8
2016-Sep-28 07:10 136 17.2
2016-Sep-28 06:55 136 16.1
2016-Sep-28 06:40 136 16.1
2016-Sep-28 06:25 136 16.1
2016-Sep-28 06:10 136 16.1
2016-Sep-28 05:55 136 16.1
2016-Sep-28 05:40 136 16.1
2016-Sep-28 05:25 136 16.1
2016-Sep-28 05:10 136 16.1
2016-Sep-28 04:55 136 16.7
2016-Sep-28 04:40 136 16.7
2016-Sep-28 04:25 136 16.7
2016-Sep-28 04:10 136 16.7
2016-Sep-28 03:55 136 16.7
2016-Sep-28 03:41 136 16.7
2016-Sep-28 03:25 136 16.7
2016-Sep-28 03:10 136 16.7
2016-Sep-28 02:55 136 16.7
2016-Sep-28 02:40 136 17.2
2016-Sep-28 02:25 136 17.2
2016-Sep-28 02:10 136 17.2
2016-Sep-28 01:55 136 17.2
2016-Sep-28 01:40 136 17.8
2016-Sep-28 01:25 136 17.2
2016-Sep-28 01:10 136 17.2
2016-Sep-28 00:55 136 17.8
2016-Sep-28 00:40 136 17.2
2016-Sep-28 00:25 136 17.8
2016-Sep-28 00:10 136 17.8
2016-Sep-27 23:55 136 18.3
2016-Sep-27 23:40 136 18.3
2016-Sep-27 23:25 136 18.3
2016-Sep-27 23:09 136 18.9
2016-Sep-27 22:54 136 18.9
2016-Sep-27 22:39 027 18.9
2016-Sep-27 22:24 026 19.4
2016-Sep-27 22:09 026 19.4
2016-Sep-27 21:54 026 18.9
2016-Sep-27 21:40 026 19.4
2016-Sep-27 21:24 026 19.4
2016-Sep-27 21:09 026 20.0
2016-Sep-27 20:54 027 20.6
2016-Sep-27 20:39 026 21.1
2016-Sep-27 20:24 026 21.1
2016-Sep-27 20:09 022 0 gusting 5 21.7
2016-Sep-27 19:55 034 4 gusting 7 21.7
2016-Sep-27 19:39 069 1 gusting 6 21.7
2016-Sep-27 19:24 103 1 gusting 6 21.7
2016-Sep-27 19:09 149 21.7
2016-Sep-27 18:54 145 3 gusting 9 21.7
2016-Sep-27 18:39 163 6 gusting 14 22.2
2016-Sep-27 18:24 182 6 gusting 12 22.2
2016-Sep-27 18:09 165 8 gusting 17 22.2
2016-Sep-27 17:54 157 7 gusting 13 22.2
2016-Sep-27 17:39 163 10 gusting 19 22.8
2016-Sep-27 17:24 157 8 gusting 19 22.8
2016-Sep-27 17:09 147 12 gusting 19 23.3
2016-Sep-27 16:54 150 9 gusting 17 24.4
2016-Sep-27 16:39 140 8 gusting 14 25.0
2016-Sep-27 16:24 190 8 gusting 14 25.6
2016-Sep-27 16:09 204 7 gusting 10 26.1
2016-Sep-27 15:54 209 5 gusting 13 26.1
2016-Sep-27 15:39 178 6 gusting 13 26.7
2016-Sep-27 15:24 180 6 gusting 13 26.7
2016-Sep-27 15:09 177 8 gusting 12 26.7
2016-Sep-27 14:54 148 6 gusting 13 26.7
2016-Sep-27 14:39 183 6 gusting 10 26.7
2016-Sep-27 14:24 202 4 gusting 10 27.2
2016-Sep-27 14:09 252 5 gusting 8 27.2
2016-Sep-27 13:54 195 4 gusting 8 27.2
2016-Sep-27 13:39 259 4 gusting 11 27.2
2016-Sep-27 13:24 217 6 gusting 10 27.2
2016-Sep-27 13:09 270 6 gusting 11 27.2
2016-Sep-27 12:54 247 6 gusting 13 26.7
2016-Sep-27 12:39 247 6 gusting 8 26.7
2016-Sep-27 12:24 232 5 gusting 11 26.1
2016-Sep-27 12:09 270 6 gusting 10 26.1
2016-Sep-27 11:54 247 6 gusting 11 26.1
2016-Sep-27 11:39 271 4 gusting 6 26.7
2016-Sep-27 11:24 028 27.2
2016-Sep-27 11:09 021 1 gusting 6 26.1
2016-Sep-27 10:54 078 2 gusting 6 26.1
2016-Sep-27 10:39 046 0 gusting 5 25.6
2016-Sep-27 10:23 059 2 gusting 5 25.0
2016-Sep-27 10:08 038 3 gusting 6 24.4
2016-Sep-27 09:54 276 23.3
2016-Sep-27 09:38 242 1 gusting 4 22.8
2016-Sep-27 09:23 317 1 gusting 5 22.8
2016-Sep-27 09:08 247 0 gusting 4 21.7
2016-Sep-27 08:53 239 0 gusting 3 21.7
2016-Sep-27 08:38 157 21.1
2016-Sep-27 08:23 125 20.6
2016-Sep-27 08:08 125 20.0
2016-Sep-27 07:53 125 20.0
2016-Sep-27 07:38 125 19.4
2016-Sep-27 07:23 125 18.3
2016-Sep-27 07:08 125 17.2
2016-Sep-27 06:52 125 16.7
2016-Sep-27 06:38 125 16.1
2016-Sep-27 06:22 125 16.7
2016-Sep-27 06:07 144 16.7
2016-Sep-27 05:52 144 16.7
2016-Sep-27 05:37 144 16.7
2016-Sep-27 05:22 144 17.2
2016-Sep-27 05:07 144 17.2
2016-Sep-27 04:52 144 17.2
2016-Sep-27 04:37 144 17.2
2016-Sep-27 04:22 144 17.8
2016-Sep-27 04:07 144 17.8
2016-Sep-27 03:52 144 18.3
2016-Sep-27 03:37 144 18.3
2016-Sep-27 03:22 144 18.3
2016-Sep-27 03:07 144 18.3
2016-Sep-27 02:52 144 18.9
2016-Sep-27 02:37 144 19.4
2016-Sep-27 02:22 144 19.4
2016-Sep-27 02:07 144 19.4
2016-Sep-27 01:52 144 19.4
2016-Sep-27 01:37 144 19.4
2016-Sep-27 01:22 144 20.0
2016-Sep-27 01:07 144 20.0
2016-Sep-27 00:52 144 20.0
2016-Sep-27 00:37 144 20.0
2016-Sep-27 00:22 144 20.0
2016-Sep-27 00:07 144 20.0
2016-Sep-26 23:52 144 20.6
2016-Sep-26 23:37 144 20.6
2016-Sep-26 23:22 144 20.6
2016-Sep-26 23:07 144 20.6